Location: Autingues
(50.8400°N, 1.9737°E)
Time: 08:09:37
(UTC+00:00)

Cosmos 1513 Rocket - Pass Details

Date: 15 May 2026
Orbit: 938 x 1008 km, 82.9° (Epoch: 5 June)

Event Time Altitude Azimuth Distance (km) Brightness Sun altitude
Exits shadow 21:15:00 - 186° (S) 3,088 6.7 -12.4°
Reaches altitude 10° 21:16:00 10° 186° (S) 2,710 6.4 -12.5°
Maximum altitude 21:22:13 87° 99° (E) 968 4.5 -13.1°
Drops below altitude 10° 21:28:22 10° 11° (N) 2,683 7.5 -13.6°
Sets 21:30:51 0° 11° (N) 3,626 8.2 -13.9°
